Hourly Weather Roundup
Issued by NWS Central Illinois

Home | Current Version | Previous Version | Text Only | Print | Product List | Glossary On
Versions: 1 2 3 4 5 6 7 8 9 10 11 12 13 14 15 16 17 18 19 20 21 22 23 24 25 26 27 28 29 30 31 32 33 34 35 36 37 38 39 40 41 42 43 44 45 46 47 48 49 50
000
NZUS43 KILX 021910
HWRILX

AREA WEATHER ROUNDUP
NATIONAL WEATHER SERVICE, LINCOLN IL
200 PM CDT TUE JUN 02 2015


CITY           SKY/WX    TMP DP  RH WIND       PRES   REMARKS
BLOOMINGTON    SUNNY     70  51  50 E9        30.13F
CHAMPAIGN      SUNNY     70  52  52 E8        30.11F
DANVILLE       MOSUNNY   68  53  58 E5        30.09F
DECATUR        SUNNY     70  53  54 E10G16    30.09F
EFFINGHAM      PTSUNNY   66  53  62 E12G20    30.11F
FLORA          MOSUNNY   63  54  72 NE5       30.11F
GALESBURG      MOSUNNY   70  52  52 S8        30.10F
JACKSONVILLE   MOSUNNY   71  54  54 CALM      30.10F
LACON          SUNNY     70  47  42 SE7       30.11S
LAWRENCEVILLE  PTSUNNY   66  56  70 VRB6      30.10F
LITCHFIELD     MOSUNNY   68  54  60 CALM      30.10F
$$


CITY           SKY/WX    TMP DP  RH WIND       PRES   REMARKS
LINCOLN        SUNNY     71  51  49 E7        30.09F
MACOMB         PTSUNNY   70  52  52 SE8       30.12F
MATTOON        MOSUNNY   70  56  61 SE9       30.09F
MT CARMEL AP   CLOUDY    66  54  63 E5        30.10F
OLNEY-NOBLE AP CLOUDY    61  54  77 CALM      30.11F
PARIS          SUNNY     71  54  55 CALM      30.10F
PEORIA         SUNNY     72  49  44 E7        30.11F
PONTIAC        SUNNY     71  50  48 E10G16    30.13F
RANTOUL        SUNNY     71  51  49 NE7       30.11F
ROBINSON       PTSUNNY   68  55  64 CALM      30.11F
SPRINGFIELD    SUNNY     72  51  47 E8        30.10F
TAYLORVILLE    MOSUNNY   70  55  60 SE8       30.10S
$$

...REGIONAL REPORTS...


CITY           SKY/WX    TMP DP  RH WIND       PRES   REMARKS
CHICAGO O`HARE MOSUNNY   68  43  40 E10       30.13F
KANKAKEE       SUNNY     68  48  49 E5        30.13F
MOLINE         SUNNY     72  49  44 SE10G16   30.08F
MOUNT VERNON   CLOUDY    63  54  72 SE6       30.11F
PITTSFIELD     MOSUNNY   71  54  55 CALM      30.10F
QUINCY         CLOUDY    69  52  54 VRB3      30.09F
ROCKFORD       MOSUNNY   72  44  36 S7        30.12F
$$


CITY           SKY/WX    TMP DP  RH WIND       PRES   REMARKS
BURLINGTON     CLOUDY    69  54  58 SE8       30.09F
CEDAR RAPIDS   MOSUNNY   70  51  51 VRB6G17   30.08F
DES MOINES     CLOUDY    69  55  60 S16       30.04F
KIRKSVILLE     CLOUDY    68  57  68 SE10      30.08F
OTTUMWA        CLOUDY    67  55  65 SE13      30.07F
ST LOUIS       PTSUNNY   72  55  55 E5        30.09F
$$


CITY           SKY/WX    TMP DP  RH WIND       PRES   REMARKS
TERRE HAUTE    SUNNY     71  54  54 E5        30.09F
EVANSVILLE     CLOUDY    64  55  72 NE7       30.11F HAZE
INDIANAPOLIS   MOSUNNY   69  51  52 E9        30.10F
LAFAYETTE      MOSUNNY   67  53  61 NE12      30.12F
MADISON        MOSUNNY   70  46  42 S12       30.11F
MILWAUKEE      MOSUNNY   62  45  53 E9        30.16F
$$




USA.gov is the U.S. government's official web portal to all federal, state and local government web resources and services.